User: anonymous   Login
Location: *
(13.2257°S, 48.7193°W)
Time: 13:57:58
(UTC+00:00)
Language:

NATO 3D Rocket - Orbit

View from above orbital plane
View from above orbital plane
View from above satellite
View from above satellite

Ground track
Ground track

The orbit is defined by the following mean orbital elements,

1 15392U          26103.08055881 +.00000000 +00000-0 +13556-3 0 00003
2 15392  21.4921 344.9135 1032002  85.5706 286.1688 12.46101741    05
Epoch (UTC): 13 April 2026 01:56:00
Eccentricity: 0.1032002
inclination: 21.4921°
perigee height: 670 km
apogee height: 2292 km
right ascension of ascending node: 344.9135°
argument of perigee: 85.5706°
revolutions per day: 12.46101741
mean anomaly at epoch: 286.1688°

The dashed part of the orbit path shows where the satellite is in the earth's shadow,  

DLR